Regional Weather Roundup
Issued by NWS Jackson, KY

Home | Current Version | Previous Version | Graphics & Text | Print | Product List | Glossary On
Versions: 1 2 3 4 5 6 7 8 9 10 11 12 13 14 15 16 17 18 19 20 21 22 23 24 25 26 27 28 29 30 31 32 33 34 35 36 37 38 39 40 41 42 43 44 45 46 47 48 49
000
ASUS43 KJKL 281210
RWRJKL

EAST KENTUCKY HOURLY WEATHER ROUNDUP
NATIONAL WEATHER SERVICE JACKSON KY
700 AM EST SAT FEB 28 2015

NOTE: "FAIR" INDICATES FEW OR NO CLOUDS BELOW 12,000 FEET WITH
NO SIGNIFICANT WEATHER AND/OR OBSTRUCTIONS TO VISIBILITY.

* THESE REPORTS ARE NOT UNDER NWS QUALITY CONTROL AND MAY NOT
  REPORT WEATHER SUCH AS PRECIPITATION AND FOG.

KYZ079-080-083-085-087-088-110-112-115-119-120-281300
...EASTERN KENTUCKY...

CITY           SKY/WX    TMP DP  RH WIND       PRES   REMARKS
JACKSON        PTCLDY    17   7  64 NE5       30.60S WCI  10
6HR MIN TEMP:  17; 6HR MAX TEMP:  19;

LONDON         CLOUDY    21   8  57 NE6       30.59R WCI  13
6HR MIN TEMP:  20; 6HR MAX TEMP:  22;

SOMERSET*      CLOUDY    21   9  58 E6        30.62R WCI  14
MONTICELLO*    PTCLDY    21  11  65 E6        30.62R WCI  13
6HR MIN TEMP:  20; 6HR MAX TEMP:  22;

MIDDLESBORO*   CLOUDY    20  14  77 CALM      30.59R
6HR MIN TEMP:  20; 6HR MAX TEMP:  24;

HAZARD APT*    MOSUNNY   19  10  68 NE3       30.61R
BLACK MTN*       N/A     19  14  79 S8          N/A  WCI   9
PIKEVILLE APT* CLOUDY    18   7  62 E5        30.61R WCI  11
BIG SANDY*     CLOUDY    18   9  68 NE6       30.63F WCI   9
6HR MIN TEMP:  17; 6HR MAX TEMP:  19;

MOREHEAD APT*  CLOUDY    16   1  53 E9        30.67F WCI   4
$$

KYZ035-036-041-042-044-050-067-078-099-281300
...CENTRAL KENTUCKY...

CITY           SKY/WX    TMP DP  RH WIND       PRES   REMARKS
MT STERLING*   CLOUDY    18   5  57 E8        30.66S WCI   7
FLEMING/MASON* MOCLDY    12   3  67 E8        30.68F WCI   1
DANVILLE*      CLOUDY    18   9  68 E6        30.63R WCI   9
RICHMOND*      PTCLDY    18   7  62 E8        30.62S WCI   7
LEXINGTON      CLOUDY    16   5  62 E12       30.64S WCI   3
6HR MIN TEMP:  16; 6HR MAX TEMP:  17;

FRANKFORT        N/A     16   4  59 E9        30.65S WCI   4
6HR MIN TEMP:  15; 6HR MAX TEMP:  17;

$$

KYZ091>093-OHZ055-061-077-WVZ005-015-034-035-042-281300
...SOUTHERN OHIO/WEST VIRGINIA...

CITY           SKY/WX    TMP DP  RH WIND       PRES   REMARKS
COVINGTON      CLOUDY    13   0  56 E8        30.68R WCI   2
COLUMBUS       MOCLDY     2  -6  69 CALM      30.72R
DAYTON         MOCLDY     8  -1  66 SE6       30.69R WCI  -2
WILMINGTON     PTCLDY     6  -5  60 E5        30.68R WCI  -3
HUNTINGTON     MOCLDY    14   3  61 NE6       30.69S WCI   5
CHARLESTON     MOCLDY    15   5  64 CALM      30.69R
PINEVILLE*     PTCLDY    11   9  92 MISG      30.65S
BECKLEY        CLOUDY     7   0  73 CALM      30.54R
BLUEFIELD      MOCLDY    13   4  67 VRB7      30.51R WCI   3
$$

VAZ002-007-008-TNZ017-027-036-066-071-281300
...SOUTHWEST VIRGINIA/EAST TENNESSEE...

CITY           SKY/WX    TMP DP  RH WIND       PRES   REMARKS
WISE*          PTCLDY    12   7  79 CALM      30.52R
JONESVILLE*    MOSUNNY   16  10  79 CALM      30.60R
ABINGDON*      CLOUDY    20  10  65 E8        30.54R WCI  10
BRISTOL        CLOUDY    18  11  74 CALM      30.58R
KNOXVILLE      PTCLDY    24  14  65 NE9       30.56R WCI  14
OAK RIDGE      MOCLDY    26  12  55 NE5       30.59R WCI  20
CROSSVILLE     CLOUDY    22  13  68 NE6       30.50R WCI  14
NASHVILLE      CLOUDY    25  10  53 NE8       30.59R WCI  16
$$

...KEY TO REMARKS...
VSB - VISIBILITY IN MILES
WCI - WIND CHILL INDEX
HX  - HEAT INDEX

$$


USA.gov is the U.S. government's official web portal to all federal, state and local government web resources and services.